STARLINK-35182

Last updated on Mon Oct 06 2025 00:02:05 GMT+0000 (Coordinated Universal Time)

1 65504U 25198N 25278.50001156 -.00008888 00000+0 -15199-3 0 9998 2 65504 53.1588 280.4707 0001152 77.9162 89.5911 15.49299340 5487
UTC large
Height (km)
Speed (km/s)
/
Latitude / Longitude
Inclination (degrees)
Orbital Period (minutes)
Azimuth
Elevation
Range (km)
Doppler Factor

Next 0 passes for location: London (51.5072 / 0.1276)

Sorry there are no passes over London.